Regional Weather Roundup
Issued by NWS

Home | Current Version | Previous Version | Text Only | Print | Product List | Glossary Off
Versions: 1 2 3 4 5 6 7 8 9 10 11 12 13 14 15 16 17 18 19 20 21 22 23 24 25 26 27 28

000
ASUS45 KBOI 232110
RWRID

IDAHO REGIONAL WEATHER ROUNDUP
NATIONAL WEATHER SERVICE BOISE ID
300 PM MDT SAT SEP 23 2017

NOTE: "FAIR" INDICATES FEW OR NO CLOUDS BELOW 12000 FEET
WITH NO SIGNIFICANT WEATHER AND/OR OBSTRUCTIONS TO VISIBILITY

IDZ012-014-232200-
SOUTHWEST IDAHO


CITY           SKY/WX    TMP DP  RH WIND       PRES   REMARKS
BOISE          SUNNY     58  36  43 NW8       30.03F
CALDWELL       SUNNY     60  37  42 NW10      30.05F
MOUNTAIN HOME  MOSUNNY   59  37  43 NW13      30.03F
$$

IDZ016-017-232200-
SOUTHCENTRAL IDAHO


CITY           SKY/WX    TMP DP  RH WIND       PRES   REMARKS
BURLEY         PTSUNNY   50  35  56 VRB5      30.00F
JEROME         MOSUNNY   52  38  58 VRB7      30.02F
TWIN FALLS     PTSUNNY   52  36  54 W8        30.02F
$$

IDZ019>023-232200-
SOUTHEAST IDAHO


CITY           SKY/WX    TMP DP  RH WIND       PRES   REMARKS
IDAHO FALLS    PTSUNNY   52  34  50 MISG      30.01S
POCATELLO      MOSUNNY   51  37  58 NW8       30.01F
REXBURG        MOSUNNY   53  34  48 VRB6      29.99F
$$

IDZ006-010-011-018-031-032-232200-
CENTRAL IDAHO MOUNTAINS


CITY           SKY/WX    TMP DP  RH WIND       PRES   REMARKS
MCCALL         CLOUDY    48  26  42 E3        30.04S
HAILEY         PTSUNNY   52  28  40 W3        30.00F
STANLEY          N/A     44  27  51 VRB5      30.05F
SALMON         MOSUNNY   52  31  44 W5        30.06F
CHALLIS        CLOUDY    47  28  47 CALM      30.04F
$$

IDZ002-004-006-007-026-232200-
NORTHERN IDAHO


CITY           SKY/WX    TMP DP  RH WIND       PRES   REMARKS
LEWISTON       CLOUDY    61  43  51 VRB6      30.09F
LOWELL           N/A     59  38  45 S3        30.10S
COEUR D`ALENE  NOT AVBL
MULLAN PASS    CLOUDY    38  33  82 CALM      30.09S
$$




USA.gov is the U.S. government's official web portal to all federal, state and local government web resources and services.